KC7FQC Weather Reports


Display with metric or nautical units.
time (UTC)temp
F
wind
direction
speed
MPH
gust
MPH
rain 1hr
in
rain 24hr
in
rain mn
in
humidity
%
barometer
mb
20210730012308 96 57 4.0 11.0 0.00 0.00 0.00 36 1012.4
20210730011752 96 42 4.0 14.0 0.00 0.00 0.00 36 1012.5
20210730011308 96 46 2.0 17.0 0.00 0.00 0.00 35 1012.5
20210730010807 97 62 4.0 23.0 0.00 0.00 0.00 34 1012.4
20210730010252 98 30 10.0 25.0 0.00 0.00 0.00 32 1012.5
20210730005807 100 55 18.0 25.0 0.00 0.00 0.00 29 1012.2
20210730005252 102 17 6.0 21.0 0.00 0.00 0.00 27 1011.9
20210730004807 104 47 8.0 16.0 0.00 0.00 0.00 25 1012.2
20210730004307 107 173 6.0 6.0 0.00 0.00 0.00 21 1011.9
20210730003752 107 175 0.0 4.0 0.00 0.00 0.00 21 1011.5
20210730003307 107 175 0.0 5.0 0.00 0.00 0.00 21 1011.5
20210730002752 107 175 0.0 5.0 0.00 0.00 0.00 21 1011.4
20210730002307 107 175 5.0 5.0 0.00 0.00 0.00 21 1011.4
20210730001807 108 175 1.0 7.0 0.00 0.00 0.00 21 1011.5
20210730001308 108 175 5.0 8.0 0.00 0.00 0.00 21 1011.5
20210730000808 108 175 3.0 9.0 0.00 0.00 0.00 21 1011.5
20210730000252 108 169 7.0 9.0 0.00 0.00 0.00 21 1011.5
20210729235807 108 157 4.0 7.0 0.00 0.00 0.00 21 1011.5
20210729235307 108 152 0.0 6.0 0.00 0.00 0.00 21 1011.5
20210729234807 107 152 1.0 8.0 0.00 0.00 0.00 20 1011.4
20210729234307 107 151 0.0 8.0 0.00 0.00 0.00 21 1011.3
20210729233752 108 150 4.0 7.0 0.00 0.00 0.00 21 1011.5
20210729233252 108 148 0.0 7.0 0.00 0.00 0.00 21 1011.5
20210729232752 108 180 0.0 5.0 0.00 0.00 0.00 20 1011.5
20210729232252 109 180 2.0 5.0 0.00 0.00 0.00 20 1011.5
20210729231752 109 181 2.0 2.0 0.00 0.00 0.00 20 1011.5
20210729231308 109 181 0.0 3.0 0.00 0.00 0.00 20 1011.5
20210729230807 108 181 0.0 3.0 0.00 0.00 0.00 20 1011.5
20210729230307 109 181 0.0 5.0 0.00 0.00 0.00 20 1011.4
20210729225752 110 181 0.0 5.0 0.00 0.00 0.00 19 1011.3
20210729225307 111 186 2.0 6.0 0.00 0.00 0.00 19 1011.5
20210729224807 110 186 5.0 6.0 0.00 0.00 0.00 20 1011.7
20210729224252 110 186 0.0 6.0 0.00 0.00 0.00 20 1011.7
20210729223808 109 185 5.0 7.0 0.00 0.00 0.00 21 1011.7
20210729223308 109 185 1.0 8.0 0.00 0.00 0.00 20 1011.8
20210729222807 110 185 7.0 8.0 0.00 0.00 0.00 20 1011.8
20210729222308 109 184 0.0 8.0 0.00 0.00 0.00 21 1011.9
20210729221752 109 184 4.0 8.0 0.00 0.00 0.00 21 1012.3
20210729221307 108 178 2.0 5.0 0.00 0.00 0.00 22 1012.1
20210729220752 108 178 0.0 6.0 0.00 0.00 0.00 21 1012.2
20210729220252 108 178 0.0 8.0 0.00 0.00 0.00 22 1012.4
20210729215807 108 178 4.0 8.0 0.00 0.00 0.00 21 1012.4
20210729215307 108 167 4.0 8.0 0.00 0.00 0.00 22 1012.6
20210729214808 108 162 0.0 7.0 0.00 0.00 0.00 22 1012.4
20210729214307 107 162 0.0 8.0 0.00 0.00 0.00 22 1012.5
20210729213752 106 161 0.0 8.0 0.00 0.00 0.00 23 1012.6
20210729213252 105 157 7.0 7.0 0.00 0.00 0.00 24 1012.5
20210729212752 105 155 0.0 7.0 0.00 0.00 0.00 23 1012.4
20210729212307 104 155 1.0 7.0 0.00 0.00 0.00 24 1012.5
20210729211807 105 152 6.0 7.0 0.00 0.00 0.00 25 1012.5
20210729211252 105 153 1.0 4.0 0.00 0.00 0.00 26 1012.5
20210729210752 104 153 0.0 5.0 0.00 0.00 0.00 26 1012.6
20210729210252 104 153 0.0 5.0 0.00 0.00 0.00 28 1012.7
20210729205752 103 153 4.0 5.0 0.00 0.00 0.00 29 1012.7
20210729205252 103 152 0.0 6.0 0.00 0.00 0.00 30 1013.0
20210729204807 102 153 0.0 6.0 0.00 0.00 0.00 30 1013.1
20210729204252 102 155 4.0 6.0 0.00 0.00 0.00 31 1013.1
20210729203807 102 158 4.0 8.0 0.00 0.00 0.00 31 1013.3
20210729203307 102 161 1.0 8.0 0.00 0.00 0.00 31 1013.4
20210729202807 101 152 1.0 8.0 0.00 0.00 0.00 32 1013.6
20210729202252 101 152 1.0 6.0 0.00 0.00 0.00 33 1013.8
20210729201752 101 152 3.0 6.0 0.00 0.00 0.00 33 1013.9
20210729201307 100 162 0.0 7.0 0.00 0.00 0.00 34 1013.9
20210729200752 99 164 0.0 9.0 0.00 0.00 0.00 35 1013.9
20210729200307 99 164 1.0 9.0 0.00 0.00 0.00 35 1014.0
20210729195807 98 108 3.0 9.0 0.00 0.00 0.00 36 1014.2
20210729195307 98 105 2.0 7.0 0.00 0.00 0.00 36 1014.2
20210729194752 98 105 2.0 9.0 0.00 0.00 0.00 36 1014.3
20210729194307 98 105 7.0 9.0 0.00 0.00 0.00 36 1014.4
20210729193807 98 106 3.0 7.0 0.00 0.00 0.00 35 1014.4
20210729193252 98 106 3.0 8.0 0.00 0.00 0.00 34 1014.5
20210729192807 97 104 0.0 8.0 0.00 0.00 0.00 35 1014.4
20210729192252 97 113 3.0 8.0 0.00 0.00 0.00 36 1014.5
20210729191808 97 118 2.0 7.0 0.00 0.00 0.00 36 1014.6
20210729191307 97 121 1.0 10.0 0.00 0.00 0.00 36 1014.7
20210729190807 97 118 2.0 10.0 0.00 0.00 0.00 36 1014.7
20210729190252 97 96 7.0 10.0 0.00 0.00 0.00 36 1014.7
20210729185752 97 119 3.0 10.0 0.00 0.00 0.00 35 1014.8
20210729185252 97 106 3.0 8.0 0.00 0.00 0.00 35 1014.9
20210729184807 97 105 3.0 8.0 0.00 0.00 0.00 35 1015.0
20210729184252 97 118 4.0 9.0 0.00 0.00 0.00 35 1015.0
20210729183752 97 109 0.0 9.0 0.00 0.00 0.00 35 1015.0
20210729183252 97 96 9.0 9.0 0.00 0.00 0.00 35 1015.1
20210729182752 97 88 7.0 10.0 0.00 0.00 0.00 35 1015.1
20210729182252 97 101 3.0 10.0 0.00 0.00 0.00 35 1015.1
20210729181752 97 98 6.0 7.0 0.00 0.00 0.00 36 1015.2
20210729181252 97 99 7.0 8.0 0.00 0.00 0.00 36 1015.3
20210729180810 97 104 4.0 8.0 0.00 0.00 0.00 36 1015.4
20210729180252 97 98 5.0 8.0 0.00 0.00 0.00 36 1015.2
20210729175807 97 98 3.0 9.0 0.00 0.00 0.00 36 1015.2
20210729175251 97 101 5.0 9.0 0.00 0.00 0.00 36 1015.3
20210729174807 97 103 3.0 11.0 0.00 0.00 0.00 36 1015.4
20210729174252 97 101 3.0 11.0 0.00 0.00 0.00 35 1015.4
20210729173807 98 101 8.0 9.0 0.00 0.00 0.00 36 1015.5
20210729173252 98 96 6.0 9.0 0.00 0.00 0.00 36 1015.6
20210729172808 98 97 8.0 8.0 0.00 0.00 0.00 35 1015.4
20210729172252 98 98 3.0 9.0 0.00 0.00 0.00 35 1015.3
20210729171752 98 98 5.0 9.0 0.00 0.00 0.00 34 1015.3
20210729171307 98 101 3.0 7.0 0.00 0.00 0.00 34 1015.2
20210729170752 99 103 2.0 7.0 0.00 0.00 0.00 33 1015.1
20210729170307 100 103 4.0 7.0 0.00 0.00 0.00 33 1015.1
20210729165752 100 103 2.0 8.0 0.00 0.00 0.00 33 1015.1
20210729165252 100 103 1.0 8.0 0.00 0.00 0.00 33 1015.3
20210729164808 101 98 5.0 10.0 0.00 0.00 0.00 32 1015.5
20210729164307 101 99 2.0 10.0 0.00 0.00 0.00 33 1015.4
20210729163807 100 103 1.0 8.0 0.00 0.00 0.00 33 1015.2
20210729163307 100 101 3.0 8.0 0.00 0.00 0.00 34 1015.2
20210729162807 99 100 5.0 9.0 0.00 0.00 0.00 33 1015.1
20210729162307 99 99 1.0 9.0 0.00 0.00 0.00 34 1015.1
20210729161752 99 101 5.0 8.0 0.00 0.00 0.00 34 1015.1
20210729161252 98 103 3.0 10.0 0.00 0.00 0.00 34 1015.0
20210729160752 98 107 3.0 10.0 0.00 0.00 0.00 35 1015.1
20210729160307 98 119 3.0 7.0 0.00 0.00 0.00 35 1015.0
20210729155807 98 119 0.0 9.0 0.00 0.00 0.00 36 1015.2
20210729155252 97 117 4.0 9.0 0.00 0.00 0.00 36 1015.3
20210729154752 97 133 3.0 7.0 0.00 0.00 0.00 36 1015.4
20210729154251 97 135 2.0 7.0 0.00 0.00 0.00 36 1015.5
20210729153751 97 137 4.0 9.0 0.00 0.00 0.00 36 1015.4
20210729153307 96 132 0.0 9.0 0.00 0.00 0.00 37 1015.4
20210729152752 96 108 2.0 8.0 0.00 0.00 0.00 38 1015.4
20210729152307 95 108 3.0 8.0 0.00 0.00 0.00 37 1015.5
20210729151807 95 107 2.0 7.0 0.00 0.00 0.00 38 1015.4
20210729151307 95 103 4.0 9.0 0.00 0.00 0.00 39 1015.4
20210729150751 95 102 4.0 9.0 0.00 0.00 0.00 38 1015.5
20210729150252 95 103 4.0 9.0 0.00 0.00 0.00 39 1015.6
20210729145807 94 109 4.0 8.0 0.00 0.00 0.00 39 1015.5
20210729145251 94 123 1.0 8.0 0.00 0.00 0.00 40 1015.5
20210729144752 94 118 1.0 7.0 0.00 0.00 0.00 41 1015.4
20210729144252 93 118 3.0 8.0 0.00 0.00 0.00 41 1015.4
20210729143807 93 118 0.0 8.0 0.00 0.00 0.00 42 1015.3
20210729143251 93 119 4.0 8.0 0.00 0.00 0.00 43 1015.3
20210729142751 93 132 4.0 5.0 0.00 0.00 0.00 44 1015.4
20210729142307 92 132 4.0 7.0 0.00 0.00 0.00 44 1015.2
20210729141808 92 132 0.0 7.0 0.00 0.00 0.00 45 1015.1
20210729141252 91 226 5.0 6.0 0.00 0.00 0.00 46 1015.2
20210729140807 91 227 0.0 4.0 0.00 0.00 0.00 47 1015.3
20210729140307 90 227 2.0 2.0 0.00 0.00 0.00 49 1015.1
20210729135752 89 227 1.0 2.0 0.00 0.00 0.00 49 1015.1
20210729135307 88 226 1.0 2.0 0.00 0.00 0.00 50 1015.1
20210729134807 88 226 0.0 1.0 0.00 0.00 0.00 51 1015.0
20210729134307 88 227 0.0 1.0 0.00 0.00 0.00 51 1014.8
20210729133807 87 227 0.0 1.0 0.00 0.00 0.00 51 1014.7
20210729133307 87 226 0.0 1.0 0.00 0.00 0.00 51 1014.6
20210729132753 87 227 0.0 1.0 0.00 0.00 0.00 52 1014.6
20210729132252 86 226 0.0 1.0 0.00 0.00 0.00 52 1014.7
20210729131807 86 226 0.0 1.0 0.00 0.00 0.00 53 1014.7
20210729131252 86 226 0.0 0.0 0.00 0.00 0.00 54 1014.7
20210729130807 86 226 0.0 0.0 0.00 0.00 0.00 54 1014.9
20210729130307 86 226 0.0 0.0 0.00 0.00 0.00 55 1014.9
20210729125807 86 226 0.0 0.0 0.00 0.00 0.00 55 1014.9
20210729125251 86 227 0.0 0.0 0.00 0.00 0.00 56 1015.0
20210729124818 86 226 0.0 1.0 0.00 0.00 0.00 56 1015.0
20210729124251 86 226 0.0 1.0 0.00 0.00 0.00 56 1014.9
20210729123807 86 226 0.0 0.0 0.00 0.00 0.00 57 1014.7
20210729123251 86 226 0.0 0.0 0.00 0.00 0.00 57 1014.5
20210729122751 86 226 0.0 0.0 0.00 0.00 0.00 56 1014.5
20210729122317 86 227 0.0 0.0 0.00 0.00 0.00 56 1014.5
20210729121751 86 227 0.0 0.0 0.00 0.00 0.00 56 1014.4
20210729121251 86 226 0.0 0.0 0.00 0.00 0.00 55 1014.4
20210729120807 86 226 0.0 0.0 0.00 0.00 0.00 55 1014.3
20210729120307 86 226 0.0 0.0 0.00 0.00 0.00 55 1014.2
20210729115751 86 226 0.0 0.0 0.00 0.00 0.00 55 1014.1
20210729115251 86 226 0.0 0.0 0.00 0.00 0.00 54 1014.1
20210729114818 86 226 0.0 0.0 0.00 0.00 0.00 54 1014.0
20210729114307 87 226 0.0 0.0 0.00 0.00 0.00 54 1013.9
20210729113751 87 226 0.0 0.0 0.00 0.00 0.00 53 1013.8
20210729113252 87 226 0.0 0.0 0.00 0.00 0.00 53 1013.8
20210729112807 87 226 0.0 0.0 0.00 0.00 0.00 53 1013.7
20210729112252 87 227 0.0 1.0 0.00 0.00 0.00 52 1013.5
20210729111752 87 226 0.0 1.0 0.00 0.00 0.00 52 1013.6
20210729111252 87 226 1.0 1.0 0.00 0.00 0.00 52 1013.6
20210729110810 87 226 0.0 1.0 0.00 0.00 0.00 52 1013.7
20210729110307 87 226 0.0 1.0 0.00 0.00 0.00 52 1013.7
20210729105807 87 226 0.0 1.0 0.00 0.00 0.00 52 1013.7
20210729105251 88 226 0.0 1.0 0.00 0.00 0.00 51 1013.6
20210729104807 88 226 0.0 1.0 0.00 0.00 0.00 52 1013.5
20210729104307 88 226 0.0 3.0 0.00 0.00 0.00 51 1013.5
20210729103751 87 226 1.0 4.0 0.00 0.00 0.00 51 1013.6
20210729103307 87 226 2.0 4.0 0.00 0.00 0.00 51 1013.6
20210729102751 87 226 0.0 3.0 0.00 0.00 0.00 52 1013.7
20210729102251 88 226 2.0 3.0 0.00 0.00 0.00 51 1013.9
20210729101752 88 226 0.0 1.0 0.00 0.00 0.00 51 1013.8
20210729101251 88 226 0.0 1.0 0.00 0.00 0.00 51 1013.7
20210729100751 88 226 0.0 2.0 0.00 0.00 0.00 51 1013.8
20210729100307 88 226 1.0 2.0 0.00 0.00 0.00 50 1013.7
20210729095751 88 227 1.0 1.0 0.00 0.00 0.00 50 1013.7
20210729095307 88 226 0.0 1.0 0.00 0.00 0.00 50 1013.5
20210729094807 88 226 0.0 3.0 0.00 0.00 0.00 49 1013.5
20210729094307 88 226 0.0 3.0 0.00 0.00 0.00 49 1013.4
20210729093807 88 227 1.0 3.0 0.00 0.00 0.00 49 1013.5
20210729093307 88 226 0.0 1.0 0.00 0.00 0.00 49 1013.5
20210729092751 88 227 0.0 1.0 0.00 0.00 0.00 50 1013.4
20210729092252 88 226 0.0 0.0 0.00 0.00 0.00 51 1013.4
20210729091751 88 226 0.0 0.0 0.00 0.00 0.00 50 1013.4
20210729091307 89 226 0.0 0.0 0.00 0.00 0.00 50 1013.6
20210729090807 89 226 0.0 0.0 0.00 0.00 0.00 49 1013.5
20210729090251 89 226 0.0 0.0 0.00 0.00 0.00 49 1013.5
20210729085807 89 226 0.0 1.0 0.00 0.00 0.00 49 1013.5
20210729085307 89 226 0.0 1.0 0.00 0.00 0.00 48 1013.5
20210729084751 89 226 1.0 1.0 0.00 0.00 0.00 48 1013.6
20210729084307 90 226 0.0 0.0 0.00 0.00 0.00 47 1013.7
20210729083751 90 226 0.0 1.0 0.00 0.00 0.00 46 1013.6
20210729083251 90 226 0.0 1.0 0.00 0.00 0.00 47 1013.8
20210729082752 90 227 0.0 1.0 0.00 0.00 0.00 46 1013.7
20210729082307 90 226 0.0 1.0 0.00 0.00 0.00 46 1013.8
20210729081752 90 226 0.0 1.0 0.00 0.00 0.00 45 1013.9
20210729081307 90 226 0.0 1.0 0.00 0.00 0.00 46 1013.9
20210729080808 90 226 0.0 1.0 0.00 0.00 0.00 46 1014.0
20210729080307 90 226 0.0 1.0 0.00 0.00 0.00 45 1014.0
20210729075752 90 226 0.0 1.0 0.00 0.00 0.00 45 1014.0
20210729075307 90 226 0.0 1.0 0.00 0.00 0.00 45 1013.8
20210729074751 90 226 0.0 1.0 0.00 0.00 0.00 44 1013.9
20210729074251 90 226 0.0 1.0 0.00 0.00 0.00 44 1014.0
20210729073751 91 226 0.0 2.0 0.00 0.00 0.00 44 1014.0
20210729073307 91 226 1.0 2.0 0.00 0.00 0.00 43 1014.0
20210729072807 91 226 0.0 0.0 0.00 0.00 0.00 43 1014.0
20210729072307 91 227 0.0 0.0 0.00 0.00 0.00 42 1014.0
20210729071807 91 226 0.0 0.0 0.00 0.00 0.00 43 1013.9
20210729071307 91 226 0.0 0.0 0.00 0.00 0.00 43 1013.9
20210729070807 92 226 0.0 0.0 0.00 0.00 0.00 42 1014.1
20210729070251 92 226 0.0 0.0 0.00 0.00 0.00 42 1014.0
20210729065807 92 226 0.0 0.0 0.00 0.00 0.00 41 1014.1
20210729065307 92 226 0.0 0.0 0.00 0.00 0.00 40 1013.8
20210729064751 92 226 0.0 0.0 0.00 0.00 0.00 40 1013.8
20210729064307 92 226 0.0 0.0 0.00 0.00 0.00 40 1013.8
20210729063752 92 226 0.0 0.0 0.00 0.00 0.00 40 1013.9
20210729063307 93 226 0.0 0.0 0.00 0.00 0.00 39 1014.0
20210729062807 93 226 0.0 0.0 0.00 0.00 0.00 38 1014.1
20210729062307 93 226 0.0 0.0 0.00 0.00 0.00 37 1014.1
20210729061751 93 226 0.0 0.0 0.00 0.00 0.00 36 1014.3
20210729061251 93 226 0.0 0.0 0.00 0.00 0.00 35 1014.3
20210729060751 94 226 0.0 0.0 0.00 0.00 0.00 35 1014.3
20210729060252 94 226 0.0 0.0 0.00 0.00 0.00 35 1014.3
20210729055751 94 226 0.0 0.0 0.00 0.00 0.00 36 1014.3
20210729055251 95 226 0.0 1.0 0.00 0.00 0.00 35 1014.4
20210729054751 95 226 0.0 2.0 0.00 0.00 0.00 34 1014.3
20210729054251 95 226 0.0 2.0 0.00 0.00 0.00 34 1014.3
20210729053807 96 226 0.0 0.0 0.00 0.00 0.00 34 1014.4
20210729053307 96 226 0.0 0.0 0.00 0.00 0.00 33 1014.4
20210729052807 96 226 0.0 0.0 0.00 0.00 0.00 33 1014.4
20210729052307 97 226 0.0 0.0 0.00 0.00 0.00 33 1014.6
20210729051751 97 226 0.0 0.0 0.00 0.00 0.00 30 1014.6
20210729051307 97 226 0.0 0.0 0.00 0.00 0.00 29 1014.7
20210729050808 97 226 0.0 0.0 0.00 0.00 0.00 29 1014.6
20210729050251 97 227 0.0 0.0 0.00 0.00 0.00 29 1014.6
20210729045751 97 226 0.0 0.0 0.00 0.00 0.00 29 1014.5
20210729045251 98 226 0.0 0.0 0.00 0.00 0.00 29 1014.5
20210729044751 98 226 0.0 0.0 0.00 0.00 0.00 28 1014.6
20210729044307 98 226 0.0 0.0 0.00 0.00 0.00 28 1014.5
20210729043807 98 226 0.0 0.0 0.00 0.00 0.00 28 1014.4
20210729043307 98 226 0.0 0.0 0.00 0.00 0.00 28 1014.5
20210729042751 98 226 0.0 1.0 0.00 0.00 0.00 27 1014.4
20210729042251 98 226 0.0 1.0 0.00 0.00 0.00 27 1014.5
20210729041807 99 226 0.0 1.0 0.00 0.00 0.00 27 1014.5
20210729041251 99 226 1.0 1.0 0.00 0.00 0.00 27 1014.5
20210729040751 99 226 0.0 1.0 0.00 0.00 0.00 27 1014.4
20210729040252 99 226 0.0 2.0 0.00 0.00 0.00 26 1014.3
20210729035751 99 226 0.0 2.0 0.00 0.00 0.00 26 1014.3
20210729035307 100 226 1.0 2.0 0.00 0.00 0.00 26 1014.2
20210729034807 100 226 0.0 3.0 0.00 0.00 0.00 26 1014.2
20210729034307 100 226 1.0 4.0 0.00 0.00 0.00 25 1014.1
20210729033807 100 226 2.0 4.0 0.00 0.00 0.00 25 1014.0
20210729033308 100 226 2.0 5.0 0.00 0.00 0.00 25 1013.9
20210729032807 100 226 2.0 5.0 0.00 0.00 0.00 25 1013.9
20210729032251 101 226 3.0 4.0 0.00 0.00 0.00 25 1013.9
20210729031807 101 226 1.0 4.0 0.00 0.00 0.00 25 1013.8
20210729031251 101 226 1.0 4.0 0.00 0.00 0.00 25 1013.8
20210729030751 101 226 4.0 4.0 0.00 0.00 0.00 25 1013.8
20210729030307 101 226 2.0 3.0 0.00 0.00 0.00 25 1013.7
20210729025751 101 226 2.0 4.0 0.00 0.00 0.00 25 1013.8
20210729025307 101 227 2.0 4.0 0.00 0.00 0.00 24 1013.6
20210729024751 102 226 2.0 5.0 0.00 0.00 0.00 24 1013.4
20210729024251 102 227 3.0 5.0 0.00 0.00 0.00 24 1013.5
20210729023807 102 226 3.0 5.0 0.00 0.00 0.00 24 1013.5
20210729023307 102 227 2.0 6.0 0.00 0.00 0.00 24 1013.5
20210729022752 102 226 0.0 6.0 0.00 0.00 0.00 24 1013.5
20210729022251 103 227 1.0 6.0 0.00 0.00 0.00 24 1013.6
20210729021807 103 227 2.0 6.0 0.00 0.00 0.00 24 1013.5
20210729021251 103 226 5.0 5.0 0.00 0.00 0.00 24 1013.5
20210729020751 103 226 2.0 6.0 0.00 0.00 0.00 24 1013.4
20210729020307 104 226 3.0 6.0 0.00 0.00 0.00 24 1013.5
20210729015752 104 227 3.0 4.0 0.00 0.00 0.00 24 1013.4
20210729015251 104 227 1.0 4.0 0.00 0.00 0.00 24 1013.2
20210729014751 105 227 3.0 4.0 0.00 0.00 0.00 24 1013.1
20210729014307 105 227 3.0 5.0 0.00 0.00 0.00 24 1013.1
20210729013751 105 227 4.0 5.0 0.00 0.00 0.00 25 1013.2
20210729013307 106 227 0.0 4.0 0.00 0.00 0.00 25 1013.2
20210729012809 106 227 0.0 8.0 0.00 0.00 0.00 25 1013.1